Location: Gälforsberget
(66.6500°N, 22.4167°E)
Time: 21:05:44
(UTC+00:00)

COSMOS 2455 - Pass Details

Date: 11 April 2026
Orbit: 901 x 907 km, 67.1° (Epoch: 11 May)

Event Time Altitude Azimuth Distance (km) Brightness Sun altitude
Rises 19:02:28 0° 274° (W) 3,541 7.0 -6.0°
Reaches altitude 10° 19:04:58 10° 275° (W) 2,600 6.2 -6.2°
Maximum altitude 19:11:02 86° 4° (N) 920 3.0 -6.6°
Drops below altitude 10° 19:17:05 10° 96° (E) 2,598 4.8 -7.1°
Enters shadow 19:19:03 - 96° (E) 3,334 5.3 -7.2°
